Tracking 29892 objects as of 21-Nov-2024
HD Live streaming from Space Station
objects crossing your sky now

STARLINK-5864

Track STARLINK-5864 now!
10-day predictions
STARLINK-5864 is classified as:


NORAD ID: 55940
Int'l Code: 2023-037AC
Perigee: 577.3 km
Apogee: 581.0 km
Inclination: 70.0 °
Period: 96.1 minutes
Semi major axis: 6950 km
RCS: Unknown
Launch date: March 17, 2023
Source: United States (US)
Launch site: AIR FORCE WESTERN TEST RANGE (AFWTR)
Your satellite tracking list
Your tracking list is empty




NASA's NSSDC Master Catalog

Two Line Element Set (TLE):
1 55940U 23037AC  24325.18188611  .00002027  00000-0  17752-3 0  9994
2 55940  70.0032  40.8574 0002702 270.2134  89.8715 14.98350299 92903
Source of the keplerian elements: AFSPC